TimeCST,TemperatureF,Dew PointF,Humidity,Sea Level PressureIn,VisibilityMPH,Wind Direction,Wind SpeedMPH,Gust SpeedMPH,PrecipitationIn,Events,Conditions,WindDirDegrees,DateUTC
12:00 AM,32,32,100,29.89,,East,15.0,,,,,100,2012-10-23 06:00:00
12:00 AM,31.6,31.6,100,29.89,-9999.0,East,15.0,-,N/A,,Unknown,100,2012-10-23 06:00:00
1:00 AM,31.6,31.6,100,29.87,-9999.0,ESE,17.3,-,N/A,,Unknown,110,2012-10-23 07:00:00
2:00 AM,31.5,31.6,100,29.82,-9999.0,East,19.6,-,0.04,,Unknown,100,2012-10-23 08:00:00
3:00 AM,32.9,31.6,95,29.78,-9999.0,East,23.0,-,0.04,,Unknown,90,2012-10-23 09:00:00
4:00 AM,33.1,31.3,93,29.75,-9999.0,East,20.7,-,0.04,,Unknown,100,2012-10-23 10:00:00
6:00 AM,33,33,100,29.75,,ESE,15.0,,,,,110,2012-10-23 12:00:00
6:00 AM,33.4,33.1,99,29.75,-9999.0,ESE,15.0,-,N/A,,Unknown,110,2012-10-23 12:00:00
8:00 AM,33.4,33.3,99,29.73,-9999.0,ESE,10.4,-,N/A,,Unknown,120,2012-10-23 14:00:00
9:00 AM,33.6,33.6,100,29.75,-9999.0,South,2.3,-,N/A,,Unknown,170,2012-10-23 15:00:00
10:00 AM,34.0,33.8,99,29.75,-9999.0,Calm,Calm,-,N/A,,Unknown,0,2012-10-23 16:00:00
11:00 AM,34.7,34.5,99,29.75,-9999.0,Calm,Calm,-,N/A,,Unknown,0,2012-10-23 17:00:00
12:00 PM,36,35,95,29.75,,SW,3.5,,,,,220,2012-10-23 18:00:00
12:00 PM,35.6,35.1,98,29.75,-9999.0,SW,3.5,-,N/A,,Unknown,220,2012-10-23 18:00:00
1:00 PM,36.0,34.7,95,29.75,-9999.0,West,6.9,-,N/A,,Unknown,260,2012-10-23 19:00:00
2:00 PM,36.1,34.3,93,29.75,-9999.0,WNW,9.2,-,N/A,,Unknown,290,2012-10-23 20:00:00
3:00 PM,37.2,35.2,93,29.75,-9999.0,WNW,6.9,-,N/A,,Unknown,290,2012-10-23 21:00:00
4:00 PM,37.6,35.1,91,29.76,-9999.0,West,9.2,-,N/A,,Unknown,270,2012-10-23 22:00:00
5:00 PM,38.5,34.5,86,29.78,-9999.0,West,10.4,-,N/A,,Unknown,270,2012-10-23 23:00:00
6:00 PM,38,33,75,29.81,,West,10.4,,,,,270,2012-10-24 00:00:00
6:00 PM,37.9,32.9,82,29.81,-9999.0,West,10.4,-,N/A,,Unknown,270,2012-10-24 00:00:00
7:00 PM,34.9,30.7,85,29.83,-9999.0,WNW,11.5,-,N/A,,Unknown,290,2012-10-24 01:00:00
8:00 PM,36.0,30.9,82,29.85,-9999.0,West,13.8,19.6,N/A,,Unknown,270,2012-10-24 02:00:00
9:00 PM,34.9,29.5,81,29.86,-9999.0,West,13.8,20.7,N/A,,Unknown,270,2012-10-24 03:00:00
10:00 PM,33.6,28.6,82,29.87,-9999.0,West,11.5,17.3,N/A,,Unknown,280,2012-10-24 04:00:00